Medford, WI

12:31 AM CST on January 17, 2018 (GMT -0600)
Taylor County

Weather History for KMDZ - September, 2013

Change the Weather History Date:

Sunday, September 22, 2013

  Actual Average Record
Temperature  
Mean Temperature 46 °F -  
Max Temperature 60 °F 59 °F 87 °F (2017)
Min Temperature 32 °F 40 °F 25 °F (1974)
Degree Days  
Heating Degree Days 20    
Moisture  
Dew Point 38 °F    
Average Humidity 77    
Maximum Humidity 100    
Minimum Humidity 50    
Precipitation  
Precipitation 0.00 in - - ()
Sea Level Pressure  
Sea Level Pressure 30.03 in    
Wind  
Wind Speed 4 mph (ESE)    
Max Wind Speed 8 mph    
Max Gust Speed -    
Visibility 10 miles    
Events      
Averages and records for this station are not official NWS values.
T = Trace of Precipitation, MM = Missing Value Source: NWS Daily Summary

Daily Weather History Graph

Daily Weather History Graph

Search for Another Location

Airport or City:

Trip Planner

Search our weather history database for the weather conditions in past years. The results will help you decide how hot, cold, wet, or windy it might be!

Date:

Astronomy

Sep. 22, 2013 Rise Set
Actual Time 6:48 AM CDT 6:58 PM CDT
Civil Twilight 6:19 AM CDT 7:27 PM CDT
Nautical Twilight 5:44 AM CDT 8:01 PM CDT
Astronomical Twilight 5:09 AM CDT 8:37 PM CDT
Moon 8:37 PM CDT (9/22) 10:19 AM CDT (9/22)
Length of Visible Light 13h 08m
Length of Day
12h 09m
Waning Gibbous, 88% of the Moon is Illuminated
Sep 22
Waning Gibbous
Sep 26
Last Quarter
Oct 4
New
Oct 11
First Quarter
Oct 18
Full

Hourly Weather History & Observations

Time (CDT) Temp. Windchill Dew Point Humidity Pressure Visibility Wind Dir Wind Speed Gust Speed Precip Events Conditions
12:15 AM 39.6 °F 37.4 °F 38.7 °F 97% 30.00 in 10.0 mi East 3.5 mph - N/A   Clear
12:35 AM 37.9 °F - 37.4 °F 98% 29.99 in 10.0 mi Calm Calm - N/A   Clear
12:55 AM 37.0 °F 34.5 °F 36.5 °F 98% 30.00 in 10.0 mi ENE 3.5 mph - N/A   Clear
1:15 AM 37.4 °F 34.9 °F 37.0 °F 99% 30.00 in 10.0 mi East 3.5 mph - N/A   Clear
1:35 AM 37.9 °F 35.5 °F 37.2 °F 97% 30.00 in 10.0 mi East 3.5 mph - N/A   Clear
1:55 AM 36.5 °F - 35.8 °F 97% 30.01 in 10.0 mi Calm Calm - N/A   Clear
2:15 AM 36.0 °F - 35.6 °F 99% 30.01 in 10.0 mi Calm Calm - N/A   Clear
2:35 AM 35.2 °F 32.4 °F 34.9 °F 99% 30.01 in 10.0 mi East 3.5 mph - N/A   Clear
2:55 AM 34.7 °F 31.8 °F 34.0 °F 97% 30.01 in 10.0 mi East 3.5 mph - N/A   Clear
3:15 AM 34.9 °F - 34.2 °F 97% 30.02 in 10.0 mi Calm Calm - N/A   Clear
3:35 AM 36.0 °F 33.3 °F 35.6 °F 99% 30.02 in 10.0 mi East 3.5 mph - N/A   Clear
3:55 AM 34.7 °F 31.8 °F 34.0 °F 97% 30.02 in 10.0 mi ENE 3.5 mph - N/A   Clear
4:15 AM 34.0 °F - 33.4 °F 98% 30.02 in 10.0 mi Calm Calm - N/A   Clear
4:35 AM 32.2 °F - 31.8 °F 99% 30.02 in 1.2 mi Calm Calm - N/A   Mist
4:55 AM 33.8 °F 29.6 °F 33.4 °F 99% 30.02 in 10.0 mi ENE 4.6 mph - N/A   Clear
5:15 AM 33.8 °F 30.8 °F 33.6 °F 99% 30.03 in 10.0 mi East 3.5 mph - N/A   Clear
5:35 AM 33.1 °F 28.7 °F 32.7 °F 99% 30.03 in 3.0 mi East 4.6 mph - N/A   Clear
5:55 AM 32.7 °F 29.6 °F 32.4 °F 99% 30.03 in 10.0 mi East 3.5 mph - N/A   Clear
6:15 AM 32.2 °F 28.9 °F 32.2 °F 100% 30.03 in 10.0 mi East 3.5 mph - N/A   Clear
6:35 AM 32.0 °F 27.5 °F 32.0 °F 100% 30.04 in 10.0 mi East 4.6 mph - N/A   Clear
6:55 AM 32.0 °F 28.7 °F 32.0 °F 100% 30.05 in 10.0 mi East 3.5 mph - N/A   Clear
7:15 AM 32.9 °F - 32.5 °F 99% 30.05 in 10.0 mi Calm Calm - N/A   Clear
7:35 AM 33.8 °F 30.8 °F 33.3 °F 98% 30.06 in 10.0 mi ENE 3.5 mph - N/A   Clear
7:55 AM 34.9 °F 30.8 °F 34.3 °F 98% 30.06 in 10.0 mi East 4.6 mph - N/A   Clear
8:15 AM 39.2 °F 35.9 °F 37.0 °F 92% 30.07 in 10.0 mi East 4.6 mph - N/A   Clear
8:35 AM 41.5 °F 37.8 °F 36.1 °F 81% 30.07 in 10.0 mi ESE 5.8 mph - N/A   Clear
8:55 AM 43.2 °F 39.0 °F 37.6 °F 81% 30.08 in 10.0 mi ESE 6.9 mph - N/A   Clear
9:15 AM 45.1 °F 43.7 °F 37.6 °F 75% 30.08 in 10.0 mi SE 3.5 mph - N/A   Clear
9:35 AM 46.0 °F 42.5 °F 36.7 °F 70% 30.08 in 10.0 mi SE 6.9 mph - N/A   Clear
9:55 AM 48.0 °F - 37.9 °F 68% 30.08 in 10.0 mi ESE 8.1 mph - N/A   Clear
10:15 AM 48.4 °F - 37.4 °F 66% 30.09 in 10.0 mi SE 8.1 mph - N/A   Clear
10:35 AM 48.9 °F - 37.4 °F 64% 30.08 in 10.0 mi SSE 8.1 mph - N/A   Clear
10:55 AM 50.0 °F - 37.9 °F 63% 30.08 in 10.0 mi SSE 8.1 mph - N/A   Clear
11:15 AM 51.1 °F - 37.9 °F 61% 30.08 in 10.0 mi SSE 5.8 mph - N/A   Clear
11:35 AM 51.1 °F - 38.8 °F 63% 30.08 in 10.0 mi SE 4.6 mph - N/A   Clear
11:55 AM 51.8 °F - 38.8 °F 61% 30.07 in 10.0 mi SE 5.8 mph - N/A   Clear
12:15 PM 53.4 °F - 39.7 °F 60% 30.07 in 10.0 mi SE 6.9 mph - N/A   Clear
12:35 PM 54.0 °F - 39.7 °F 59% 30.06 in 10.0 mi ESE 5.8 mph - N/A   Clear
12:55 PM 55.0 °F - 40.5 °F 58% 30.05 in 10.0 mi SE 5.8 mph - N/A   Clear
1:15 PM 55.4 °F - 40.6 °F 58% 30.05 in 10.0 mi SE 5.8 mph - N/A   Clear
1:35 PM 56.1 °F - 41.2 °F 57% 30.04 in 10.0 mi ESE 5.8 mph - N/A   Clear
1:55 PM 56.8 °F - 41.0 °F 55% 30.04 in 10.0 mi SSE 6.9 mph - N/A   Clear
2:15 PM 57.6 °F - 40.6 °F 53% 30.03 in 10.0 mi SE 5.8 mph - N/A   Clear
2:35 PM 58.5 °F - 41.0 °F 52% 30.02 in 10.0 mi SSE 8.1 mph - N/A   Clear
2:55 PM 59.0 °F - 41.7 °F 53% 30.02 in 10.0 mi SSE 8.1 mph - N/A   Clear
3:15 PM 59.0 °F - 41.2 °F 52% 30.01 in 10.0 mi SE 6.9 mph - N/A   Clear
3:35 PM 59.0 °F - 41.0 °F 51% 30.01 in 10.0 mi SE 5.8 mph - N/A   Clear
3:55 PM 59.0 °F - 41.2 °F 52% 30.01 in 10.0 mi SE 5.8 mph - N/A   Clear
4:15 PM 59.4 °F - 41.2 °F 51% 30.01 in 10.0 mi ESE 6.9 mph - N/A   Clear
4:35 PM 59.0 °F - 40.5 °F 50% 30.00 in 10.0 mi ESE 4.6 mph - N/A   Clear
4:55 PM 58.8 °F - 40.8 °F 51% 30.00 in 10.0 mi SE 5.8 mph - N/A   Clear
5:15 PM 58.3 °F - 41.2 °F 53% 30.00 in 10.0 mi SE 8.1 mph - N/A   Clear
5:35 PM 57.7 °F - 40.3 °F 52% 30.00 in 10.0 mi SE 8.1 mph - N/A   Clear
5:55 PM 56.8 °F - 41.0 °F 55% 30.00 in 10.0 mi SE 4.6 mph - N/A   Clear
6:15 PM 55.8 °F - 41.9 °F 60% 30.00 in 10.0 mi SE 4.6 mph - N/A   Clear
6:35 PM 54.0 °F - 42.1 °F 64% 30.00 in 10.0 mi ESE 3.5 mph - N/A   Clear
6:55 PM 51.8 °F - 42.3 °F 70% 30.00 in 10.0 mi East 4.6 mph - N/A   Clear
7:15 PM 50.4 °F - 41.9 °F 73% 30.01 in 10.0 mi ESE 4.6 mph - N/A   Clear
7:35 PM 49.6 °F - 41.5 °F 74% 30.02 in 10.0 mi ESE 4.6 mph - N/A   Clear
7:55 PM 49.1 °F - 41.4 °F 75% 30.02 in 10.0 mi ESE 4.6 mph - N/A   Clear
8:15 PM 48.6 °F - 41.4 °F 76% 30.02 in 10.0 mi ESE 5.8 mph - N/A   Clear
8:35 PM 48.7 °F - 41.2 °F 75% 30.02 in 10.0 mi SE 5.8 mph - N/A   Clear
8:55 PM 48.9 °F - 41.0 °F 74% 30.03 in 10.0 mi SE 5.8 mph - N/A   Clear
9:15 PM 48.2 °F - 41.0 °F 76% 30.03 in 10.0 mi ESE 5.8 mph - N/A   Clear
9:35 PM 47.8 °F - 41.2 °F 78% 30.03 in 10.0 mi SE 5.8 mph - N/A   Clear
9:55 PM 47.3 °F - 41.2 °F 79% 30.04 in 10.0 mi SE 5.8 mph - N/A   Clear
10:15 PM 46.9 °F - 41.4 °F 81% 30.04 in 10.0 mi SE 5.8 mph - N/A   Clear
10:35 PM 46.6 °F - 41.4 °F 82% 30.04 in 10.0 mi SE 5.8 mph - N/A   Clear
10:55 PM 45.9 °F 42.9 °F 41.4 °F 84% 30.04 in 10.0 mi ESE 5.8 mph - N/A   Clear
11:15 PM 45.1 °F 42.0 °F 41.4 °F 87% 30.04 in 10.0 mi SE 5.8 mph - N/A   Clear
11:35 PM 44.8 °F 40.4 °F 41.5 °F 88% 30.04 in 10.0 mi SE 8.1 mph - N/A   Clear
11:55 PM 44.2 °F 40.3 °F 41.4 °F 90% 30.05 in 10.0 mi SE 6.9 mph - N/A   Clear